AirNav   Everest Fuels
 
 1562 users online  

C91 Dowagiac Municipal Airport
Dowagiac, Michigan, USA

GOING TO DOWAGIAC?


FAA INFORMATION EFFECTIVE 16 JULY 2020

Location

FAA Identifier: C91
Lat/Long: 41-59-34.5000N 086-07-41.8000W
41-59.575000N 086-07.696667W
41.9929167,-86.1282778
(estimated)
Elevation: 747.3 ft. / 227.8 m (surveyed)
Variation: 05W (2010)
From city: 1 mile NW of DOWAGIAC, MI
Time zone: UTC -4 (UTC -5 during Standard Time)
Zip code: 49047

Airport Operations

Airport use: Open to the public
Activation date: 07/1974
Control tower: no
ARTCC: CHICAGO CENTER
FSS: LANSING FLIGHT SERVICE STATION
NOTAMs facility: LAN (NOTAM-D service available)
Attendance: UNATNDD
Pattern altitude: 1547.3 ft. MSL
Wind indicator: lighted
Segmented circle: yes
Lights: ACTVT MIRL RWY 09/27; PAPI RWYS 09 & RWY 27; & REIL RWYS 09 & 27 - CTAF.
Beacon: white-green (lighted land airport)
Operates sunset to sunrise.

Airport Communications

CTAF/UNICOM: 122.8
SOUTH BEND APPROACH: 118.55
SOUTH BEND DEPARTURE: 118.55
WX ASOS at BEH (16 nm NW): 121.55 (269-925-9008)
WX AWOS-3 at EKM (17 nm S): 124.475 (574-264-9002)
WX ASOS at SBN (19 nm SW): PHONE 574-251-2652
  • APCH/DEP SVC PRVDD BY CHICAGO ARTCC ON 127.55/263.1 (GOSHEN RCAG) WHEN SOUTH BEND APCH CTL CLSD.

Nearby radio navigation aids

VOR radial/distance  VOR name  Freq  Var
ELXr182/9.1KEELER VOR/DME116.6000E
GIJr032/15.9GIPPER VORTAC115.4000E
PMMr182/28.4PULLMAN VOR/DME112.1000E
GSHr351/28.4GOSHEN VORTAC113.7000E
AZOr241/29.5KALAMAZOO VOR/DME109.0001W

 
NDB name  Hdg/Dist  Freq  Var  ID
STURGIS293/32.838204WIRS .. .-. ...

Airport Services

Fuel available: 100LL
SELF SVC FUEL AVBL 24 HR.
Parking: tiedowns

Runway Information

Runway 9/27

Dimensions: 4700 x 100 ft. / 1433 x 30 m
Surface: asphalt, in fair condition
Weight bearing capacity: 
Single wheel: 30.0
Double wheel: 60.0
Runway edge lights: medium intensity
RUNWAY 9  RUNWAY 27
Latitude: 41-59.621735N41-59.620635N
Longitude: 086-08.343092W086-07.305887W
Elevation: 735.8 ft.746.7 ft.
Traffic pattern: leftright
Runway heading: 095 magnetic, 090 true275 magnetic, 270 true
Markings: nonprecision, in good conditionnonprecision, in good condition
Visual slope indicator: 4-light PAPI on left (3.00 degrees glide path)4-light PAPI on left (3.00 degrees glide path)
Runway end identifier lights: yesyes
Touchdown point: yes, no lightsyes, no lights
Obstructions: 80 ft. trees, 1584 ft. from runway, 190 ft. right of centerline, 17:1 slope to clear77 ft. trees, 1600 ft. from runway, 275 ft. left of centerline, 18:1 slope to clear

Runway 4/22

Dimensions: 2176 x 100 ft. / 663 x 30 m
Surface: turf, in fair condition
Runway edge markings: RWY 04 /22 & DSPLD THR MKD WITH 3 FT YELLOW CONES.
RUNWAY 4  RUNWAY 22
Latitude: 41-59.344667N41-59.603667N
Longitude: 086-07.584833W086-07.253000W
Elevation: 742.0 ft.746.8 ft.
Traffic pattern: leftright
Runway heading: 049 magnetic, 044 true229 magnetic, 224 true
Displaced threshold: no388 ft.
Markings: basic, in good conditionbasic, in good condition
Runway end identifier lights: nono
Touchdown point: yes, no lightsyes, no lights
Obstructions: 22 ft. trees, 212 ft. from runway, 130 ft. right of centerline, 9:1 slope to clear
APCH RATIO 20:1 BASED ON STRAIGHT OUT.
75 ft. tree, 900 ft. from runway, 180 ft. right of centerline, 12:1 slope to clear
APCH RATIO 20:1 AT DSLPD THR.

Airport Ownership and Management from official FAA records

Ownership: Publicly-owned
Owner: CITY OF DOWAGIAC
PO BOX 430, 241 SOUTH FRONT
DOWAGIAC, MI 49047
Phone 269-782-8530
Manager: OSCAR AZEVEDO
P.O. BOX 430, 241 S. FRONT ST.
DOWAGIAC, MI 49047
Phone (269) 591-0054
269-591-0054 MGR CELL 269-782-3805 MGR RES 269-782-4936 UNATNDD ARPT PH.

Airport Operational Statistics

Aircraft based on the field: 16
Single engine airplanes: 15
Multi engine airplanes: 1
    
Aircraft operations: avg 69/week *
50% transient general aviation
50% local general aviation
* for 12-month period ending 31 December 2018

Additional Remarks

DEER & BIRDS ON & INVOF ARPT.
MODEL R/C ACFT OPS E SIDE OF RWY 04/22.
ADMIN BLDG ACCESS, DEPRESS V, THEN III-II SIMULTANEOUS, THEN I.
FOR CD CTC CHICAGO ARTCC AT 630-906-8921.

Instrument Procedures

NOTE: All procedures below are presented as PDF files. If you need a reader for these files, you should download the free Adobe Reader.

NOT FOR NAVIGATION. Please procure official charts for flight.
FAA instrument procedures published for use from 16 July 2020 at 0901Z to 13 August 2020 at 0900Z.

 
IAPs - Instrument Approach Procedures
RNAV (GPS) RWY 09   download (228KB)
RNAV (GPS) RWY 27   download (225KB)
VOR-A   download (191KB)
NOTE: Special Take-Off Minimums/Departure Procedures apply   download (411KB)

Other nearby airports with instrument procedures:

3TR - Jerry Tyler Memorial Airport (10 nm SW)
C20 - Andrews University Airpark (11 nm W)
KBEH - Southwest Michigan Regional Airport (16 nm NW)
KEKM - Elkhart Municipal Airport (17 nm S)
KSBN - South Bend International Airport (19 nm SW)
 
Loc | Ops | Rwys | IFR | FBO | Links
Com | Nav | Svcs | Stats | Notes
Area around C91 (Dowagiac Municipal Airport)
 
Road maps at: MapQuest Bing Google
 
Aerial photo
WARNING: Photo may not be current or correct
Aerial photo of C91 (Dowagiac Municipal Airport)
Photo by Nate Enyedi
Photo taken 03-Nov-2007

Do you have a better or more recent aerial photo of Dowagiac Municipal Airport that you would like to share? If so, please send us your photo.

 
Sectional chart

 
Airport distance calculator
Flying to Dowagiac Municipal Airport? Find the distance to fly.

From to C91

Sunrise and sunset
Times for 03-Aug-2020
 Local
(UTC-4)
 Zulu
(UTC)
Morning civil twilight06:1110:11
Sunrise06:4210:42
Sunset20:5900:59
Evening civil twilight21:3001:30

Current date and time
Zulu (UTC)  03-Aug-2020 20:21:54
Local (UTC-4)  03-Aug-2020 16:21:54
 
METAR
KBEH 
15nm NW 
031953Z AUTO VRB05KT 10SM FEW020 BKN050 22/16 A2999 RMK AO2 SLP153 T02170161
KEKM 
18nm S 
031950Z 29008KT 10SM BKN030 24/17 A2997 RMK AO2
KSBN 
19nm SW 
031954Z 30011G19KT 10SM SCT028 25/17 A2998 RMK AO2 SLP147 T02500172
KLWA 
22nm N 
031955Z AUTO 31010G16KT 290V350 10SM SCT019 22/16 A2999 RMK AO2 T02170162
KHAI 
24nm E 
031955Z AUTO 31008G15KT 10SM SCT033 SCT044 25/16 A2996 RMK AO2 T02500163
KAZO 
30nm NE 
031953Z VRB05KT 10SM SCT036 BKN046 26/16 A2995 RMK AO2 SLP139 T02560156
TAF
KSBN 
19nm SW 
031727Z 0318/0418 31010KT P6SM VCSH SCT020 BKN100 TEMPO 0318/0322 BKN025 FM040000 34007KT P6SM BKN150 FM041000 01005KT P6SM SCT030
NOTAMs
Click for the latest NOTAMs
NOTAMs are issued by the DoD/FAA and will open in a separate window not controlled by AirNav.

 

 
 

FBO, Fuel Providers, and Aircraft Ground Support

  
 Business Name 
 
 Contact 
 
 Services / Description 
 
Fuel Prices
 
Comments
  
Dowagiac Municipal Airport 269-782-3805
no information available

If you are affiliated with Dowagiac Municipal Airport and would like to show here your services, contact info, web link, logo, and more, click here
100LL
SS $4.25 
 Updated 23-Jul-2020
 
   1 read write
SS=Self service
Update Fuel Prices
 

Would you like to see your business listed on this page?

 If your business provides an interesting product or service to pilots, flight crews, aircraft, or users of the Dowagiac Municipal Airport, you should consider listing it here.  To start the listing process, click on the button below
 
Add a business
 

Other Pages about Dowagiac Municipal Airport

Page from the Michigan Airport Directory (PDF)
 
Update a link
 
Copyright © AirNav, LLC. All rights reserved. Privacy Policy  Contact